Time,TemperatureF,DewpointF,PressureIn,WindDirection,WindDirectionDegrees,WindSpeedMPH,WindSpeedGustMPH,Humidity,HourlyPrecipIn,Conditions,Clouds,dailyrainin,SoftwareType,DateUTC
2013-03-12 00:00:00,36.3,31.6,29.67,SW,225,4.3,11.2,83,0.00,,,0.00,WUHU21623XXSP,2013-03-12 04:00:00,
2013-03-12 00:05:00,36.1,31.7,29.67,SW,225,0.0,8.7,83,0.00,,,0.00,WUHU21623XXSP,2013-03-12 04:05:00,
2013-03-12 00:10:00,36.1,31.4,29.67,SW,225,1.8,4.9,83,0.00,,,0.00,WUHU21623XXSP,2013-03-12 04:10:00,
2013-03-12 00:15:00,36.0,31.5,29.67,SW,225,7.2,7.6,84,0.00,,,0.00,WUHU21623XXSP,2013-03-12 04:15:00,
2013-03-12 00:20:00,35.8,31.4,29.67,SW,225,2.5,7.6,84,0.00,,,0.00,WUHU21623XXSP,2013-03-12 04:20:00,
2013-03-12 00:25:00,35.8,31.4,29.68,South,180,3.4,7.2,84,0.00,,,0.00,WUHU21623XXSP,2013-03-12 04:25:00,
2013-03-12 00:30:00,35.8,31.6,29.68,SW,225,6.5,6.5,85,0.00,,,0.00,WUHU21623XXSP,2013-03-12 04:30:00,
2013-03-12 00:35:00,35.6,31.5,29.68,SSW,202,3.6,6.5,85,0.00,,,0.00,WUHU21623XXSP,2013-03-12 04:35:00,
2013-03-12 00:40:00,35.4,31.3,29.68,SW,225,2.9,6.5,85,0.00,,,0.00,WUHU21623XXSP,2013-03-12 04:40:00,
2013-03-12 00:45:00,35.4,31.3,29.68,SW,225,2.7,4.0,85,0.00,,,0.00,WUHU21623XXSP,2013-03-12 04:45:00,
2013-03-12 00:50:00,35.4,31.3,29.68,SW,225,3.6,6.7,85,0.00,,,0.00,WUHU21623XXSP,2013-03-12 04:50:00,
2013-03-12 00:55:00,35.4,31.3,29.68,SW,225,7.6,8.5,85,0.00,,,0.00,WUHU21623XXSP,2013-03-12 04:55:00,
2013-03-12 01:00:00,35.4,31.6,29.68,SSW,202,1.1,8.5,86,0.00,,,0.00,WUHU21623XXSP,2013-03-12 05:00:00,
2013-03-12 01:05:00,35.4,31.6,29.68,SSW,202,1.1,2.9,86,0.00,,,0.00,WUHU21623XXSP,2013-03-12 05:05:00,
2013-03-12 01:13:00,35.4,31.6,29.68,SSW,202,1.1,1.1,86,0.00,,,0.00,WUHU21623XXSP,2013-03-12 05:13:00,
2013-03-12 01:18:00,35.2,31.4,29.68,SW,225,7.6,7.6,86,0.00,,,0.00,WUHU21623XXSP,2013-03-12 05:18:00,
2013-03-12 01:23:00,35.2,31.4,29.68,SW,225,6.5,7.6,86,0.00,,,0.00,WUHU21623XXSP,2013-03-12 05:23:00,
2013-03-12 01:28:00,35.2,31.4,29.69,SSW,202,7.8,8.3,86,0.00,,,0.00,WUHU21623XXSP,2013-03-12 05:28:00,
2013-03-12 01:33:00,35.2,31.4,29.69,SSW,202,6.5,8.3,86,0.00,,,0.00,WUHU21623XXSP,2013-03-12 05:33:00,
2013-03-12 01:38:00,35.2,31.1,29.69,SW,225,5.4,8.1,85,0.00,,,0.00,WUHU21623XXSP,2013-03-12 05:38:00,
2013-03-12 01:43:00,35.2,31.1,29.70,South,180,3.6,6.3,85,0.00,,,0.00,WUHU21623XXSP,2013-03-12 05:43:00,
2013-03-12 01:48:00,35.2,31.1,29.70,South,180,3.6,5.4,85,0.00,,,0.00,WUHU21623XXSP,2013-03-12 05:48:00,
2013-03-12 01:53:00,35.2,31.1,29.70,South,180,3.6,3.6,85,0.00,,,0.00,WUHU21623XXSP,2013-03-12 05:53:00,
2013-03-12 01:58:00,35.2,31.1,29.70,SW,225,0.2,8.1,85,0.00,,,0.00,WUHU21623XXSP,2013-03-12 05:58:00,
2013-03-12 02:03:00,35.2,31.1,29.70,SSW,202,4.9,8.1,85,0.00,,,0.00,WUHU21623XXSP,2013-03-12 06:03:00,
2013-03-12 02:08:00,35.2,31.1,29.70,SSW,202,3.4,6.3,85,0.00,,,0.00,WUHU21623XXSP,2013-03-12 06:08:00,
2013-03-12 02:13:00,35.1,31.1,29.70,SSW,202,3.1,6.3,85,0.00,,,0.00,WUHU21623XXSP,2013-03-12 06:13:00,
2013-03-12 02:18:00,34.9,30.7,29.70,SSW,202,6.7,7.4,85,0.00,,,0.00,WUHU21623XXSP,2013-03-12 06:18:00,
2013-03-12 02:23:00,34.9,30.7,29.70,SW,225,1.6,7.4,85,0.00,,,0.00,WUHU21623XXSP,2013-03-12 06:23:00,
2013-03-12 02:28:00,34.9,30.7,29.71,SW,225,2.7,6.9,85,0.00,,,0.00,WUHU21623XXSP,2013-03-12 06:28:00,
2013-03-12 02:33:00,34.9,30.7,29.71,SW,225,8.3,8.3,85,0.00,,,0.00,WUHU21623XXSP,2013-03-12 06:33:00,
2013-03-12 02:38:00,34.9,30.7,29.71,SW,225,1.6,8.3,85,0.00,,,0.00,WUHU21623XXSP,2013-03-12 06:38:00,
2013-03-12 02:43:00,34.5,30.4,29.71,SW,225,6.3,8.3,85,0.00,,,0.00,WUHU21623XXSP,2013-03-12 06:43:00,
2013-03-12 02:48:00,34.5,30.4,29.71,SW,225,5.4,6.3,85,0.00,,,0.00,WUHU21623XXSP,2013-03-12 06:48:00,
2013-03-12 02:53:00,34.3,30.2,29.71,SSW,202,8.5,8.5,85,0.00,,,0.00,WUHU21623XXSP,2013-03-12 06:53:00,
2013-03-12 02:58:00,34.3,30.2,29.72,SW,225,8.3,8.5,85,0.00,,,0.00,WUHU21623XXSP,2013-03-12 06:58:00,
2013-03-12 03:03:00,34.3,30.2,29.72,SSW,202,4.7,8.3,85,0.00,,,0.00,WUHU21623XXSP,2013-03-12 07:03:00,
2013-03-12 03:08:00,34.3,30.2,29.72,SW,225,4.5,8.3,85,0.00,,,0.00,WUHU21623XXSP,2013-03-12 07:08:00,
2013-03-12 03:13:00,34.3,30.5,29.72,SW,225,6.3,6.3,86,0.00,,,0.00,WUHU21623XXSP,2013-03-12 07:13:00,
2013-03-12 03:18:00,34.3,30.5,29.72,SW,225,3.8,6.3,86,0.00,,,0.00,WUHU21623XXSP,2013-03-12 07:18:00,
2013-03-12 03:23:00,34.3,30.5,29.72,SW,225,3.8,5.8,86,0.00,,,0.00,WUHU21623XXSP,2013-03-12 07:23:00,
2013-03-12 03:28:00,34.2,30.3,29.72,SW,225,5.1,7.6,86,0.00,,,0.00,WUHU21623XXSP,2013-03-12 07:28:00,
2013-03-12 03:33:00,34.2,30.3,29.72,SW,225,6.9,7.6,86,0.00,,,0.00,WUHU21623XXSP,2013-03-12 07:33:00,
2013-03-12 03:38:00,34.0,30.1,29.72,SSW,202,3.4,6.9,86,0.00,,,0.00,WUHU21623XXSP,2013-03-12 07:38:00,
2013-03-12 03:43:00,34.0,30.1,29.72,SW,225,6.5,6.5,86,0.00,,,0.00,WUHU21623XXSP,2013-03-12 07:43:00,
2013-03-12 03:48:00,34.0,30.1,29.72,SW,225,6.5,6.5,86,0.00,,,0.00,WUHU21623XXSP,2013-03-12 07:48:00,
2013-03-12 03:53:00,34.0,30.1,29.72,SSW,202,8.1,8.1,86,0.00,,,0.00,WUHU21623XXSP,2013-03-12 07:53:00,
2013-03-12 03:58:00,34.0,30.1,29.72,SSW,202,6.5,8.1,86,0.00,,,0.00,WUHU21623XXSP,2013-03-12 07:58:00,
2013-03-12 04:03:00,34.0,30.1,29.72,SSW,202,4.3,8.1,86,0.00,,,0.00,WUHU21623XXSP,2013-03-12 08:03:00,
2013-03-12 04:08:00,33.8,29.9,29.72,SW,225,5.1,7.8,86,0.00,,,0.00,WUHU21623XXSP,2013-03-12 08:08:00,
2013-03-12 04:13:00,33.8,29.9,29.72,SSW,202,7.8,7.8,86,0.00,,,0.00,WUHU21623XXSP,2013-03-12 08:13:00,
2013-03-12 04:18:00,33.8,29.9,29.72,SSW,202,0.7,7.8,86,0.00,,,0.00,WUHU21623XXSP,2013-03-12 08:18:00,
2013-03-12 04:23:00,33.8,29.9,29.72,SW,225,0.0,6.3,86,0.00,,,0.00,WUHU21623XXSP,2013-03-12 08:23:00,
2013-03-12 04:28:00,33.6,29.8,29.72,SW,225,1.6,4.5,86,0.00,,,0.00,WUHU21623XXSP,2013-03-12 08:28:00,
2013-03-12 04:33:00,33.6,29.8,29.72,SW,225,2.2,6.7,86,0.00,,,0.00,WUHU21623XXSP,2013-03-12 08:33:00,
2013-03-12 04:38:00,33.6,29.8,29.72,SSE,157,2.2,6.7,86,0.00,,,0.00,WUHU21623XXSP,2013-03-12 08:38:00,
2013-03-12 04:43:00,33.6,29.8,29.72,SW,225,8.1,8.1,86,0.00,,,0.00,WUHU21623XXSP,2013-03-12 08:43:00,
2013-03-12 04:48:00,33.6,29.8,29.72,SSW,202,7.8,8.1,86,0.00,,,0.00,WUHU21623XXSP,2013-03-12 08:48:00,
2013-03-12 04:53:00,33.6,29.8,29.72,SSW,202,2.9,7.8,86,0.00,,,0.00,WUHU21623XXSP,2013-03-12 08:53:00,
2013-03-12 04:58:00,33.6,29.8,29.72,SSW,202,6.3,6.7,86,0.00,,,0.00,WUHU21623XXSP,2013-03-12 08:58:00,
2013-03-12 05:03:00,33.6,29.8,29.72,SSW,202,2.7,6.7,86,0.00,,,0.00,WUHU21623XXSP,2013-03-12 09:03:00,
2013-03-12 05:08:00,33.6,29.8,29.72,SSW,202,5.8,5.8,86,0.00,,,0.00,WUHU21623XXSP,2013-03-12 09:08:00,
2013-03-12 05:13:00,33.6,29.8,29.72,SSW,202,3.4,5.8,86,0.00,,,0.00,WUHU21623XXSP,2013-03-12 09:13:00,
2013-03-12 05:18:00,33.6,29.8,29.72,SW,225,6.5,6.5,86,0.00,,,0.00,WUHU21623XXSP,2013-03-12 09:18:00,
2013-03-12 05:23:00,33.4,29.6,29.73,SSW,202,8.1,8.1,86,0.00,,,0.00,WUHU21623XXSP,2013-03-12 09:23:00,
2013-03-12 05:28:00,33.6,29.8,29.73,SSW,202,2.5,8.1,86,0.00,,,0.00,WUHU21623XXSP,2013-03-12 09:28:00,
2013-03-12 05:33:00,33.4,29.6,29.73,SSW,202,4.9,6.9,86,0.00,,,0.00,WUHU21623XXSP,2013-03-12 09:33:00,
2013-03-12 05:38:00,33.4,29.6,29.73,South,180,3.6,5.4,86,0.00,,,0.00,WUHU21623XXSP,2013-03-12 09:38:00,
2013-03-12 05:43:00,33.4,29.6,29.74,SW,225,2.5,3.6,86,0.00,,,0.00,WUHU21623XXSP,2013-03-12 09:43:00,
2013-03-12 05:48:00,33.4,29.6,29.73,SSE,157,5.1,5.1,86,0.00,,,0.00,WUHU21623XXSP,2013-03-12 09:48:00,
2013-03-12 05:53:00,33.4,29.6,29.73,SSW,202,5.4,7.4,86,0.00,,,0.00,WUHU21623XXSP,2013-03-12 09:53:00,
2013-03-12 05:58:00,33.4,29.6,29.74,SW,225,1.1,7.4,86,0.00,,,0.00,WUHU21623XXSP,2013-03-12 09:58:00,
2013-03-12 06:03:00,33.4,29.6,29.74,SSW,202,5.1,5.1,86,0.00,,,0.00,WUHU21623XXSP,2013-03-12 10:03:00,
2013-03-12 06:08:00,33.3,29.5,29.75,SSW,202,2.2,5.1,86,0.00,,,0.00,WUHU21623XXSP,2013-03-12 10:08:00,
2013-03-12 06:13:00,33.3,29.5,29.74,SW,225,1.8,5.1,86,0.00,,,0.00,WUHU21623XXSP,2013-03-12 10:13:00,
2013-03-12 06:18:00,33.3,29.5,29.75,SW,225,3.6,3.6,86,0.00,,,0.00,WUHU21623XXSP,2013-03-12 10:18:00,
2013-03-12 06:23:00,33.3,29.5,29.75,SW,225,5.8,6.5,86,0.00,,,0.00,WUHU21623XXSP,2013-03-12 10:23:00,
2013-03-12 06:28:00,33.3,29.5,29.75,SW,225,3.6,6.5,86,0.00,,,0.00,WUHU21623XXSP,2013-03-12 10:28:00,
2013-03-12 06:33:00,33.1,29.3,29.75,SW,225,4.0,4.0,86,0.00,,,0.00,WUHU21623XXSP,2013-03-12 10:33:00,
2013-03-12 06:38:00,33.1,29.3,29.76,SSW,202,8.1,8.1,86,0.00,,,0.00,WUHU21623XXSP,2013-03-12 10:38:00,
2013-03-12 06:43:00,33.1,29.3,29.76,SW,225,8.5,8.5,86,0.00,,,0.00,WUHU21623XXSP,2013-03-12 10:43:00,
2013-03-12 06:48:00,33.1,29.3,29.76,SSW,202,4.3,8.5,86,0.00,,,0.00,WUHU21623XXSP,2013-03-12 10:48:00,
2013-03-12 06:53:00,33.1,29.3,29.76,SSW,202,5.6,8.5,86,0.00,,,0.00,WUHU21623XXSP,2013-03-12 10:53:00,
2013-03-12 06:58:00,33.1,29.3,29.77,SW,225,0.0,5.6,86,0.00,,,0.00,WUHU21623XXSP,2013-03-12 10:58:00,
2013-03-12 07:03:00,32.9,29.1,29.77,SW,225,3.8,5.6,86,0.00,,,0.00,WUHU21623XXSP,2013-03-12 11:03:00,
2013-03-12 07:08:00,32.9,29.1,29.77,SSW,202,3.1,7.8,86,0.00,,,0.00,WUHU21623XXSP,2013-03-12 11:08:00,
2013-03-12 07:13:00,32.9,29.1,29.77,SW,225,8.5,8.5,85,0.00,,,0.00,WUHU21623XXSP,2013-03-12 11:13:00,
2013-03-12 07:18:00,32.9,28.9,29.77,SW,225,4.5,8.5,85,0.00,,,0.00,WUHU21623XXSP,2013-03-12 11:18:00,
2013-03-12 07:23:00,32.7,28.7,29.77,SW,225,2.0,8.1,85,0.00,,,0.00,WUHU21623XXSP,2013-03-12 11:23:00,
2013-03-12 07:28:00,32.7,28.7,29.77,SW,225,2.0,6.5,85,0.00,,,0.00,WUHU21623XXSP,2013-03-12 11:28:00,
2013-03-12 07:33:00,32.7,28.7,29.77,SW,225,5.1,6.9,85,0.00,,,0.00,WUHU21623XXSP,2013-03-12 11:33:00,
2013-03-12 07:38:00,32.7,28.4,29.77,SW,225,3.1,6.9,84,0.00,,,0.00,WUHU21623XXSP,2013-03-12 11:38:00,
2013-03-12 07:43:00,32.7,28.4,29.77,SW,225,4.7,7.8,84,0.00,,,0.00,WUHU21623XXSP,2013-03-12 11:43:00,
2013-03-12 07:48:00,32.7,28.4,29.78,SW,225,7.6,7.8,84,0.00,,,0.00,WUHU21623XXSP,2013-03-12 11:48:00,
2013-03-12 07:53:00,32.7,28.4,29.78,SW,225,6.5,7.6,84,0.00,,,0.00,WUHU21623XXSP,2013-03-12 11:53:00,
2013-03-12 07:58:00,32.7,28.4,29.78,SSW,202,7.2,7.2,84,0.00,,,0.00,WUHU21623XXSP,2013-03-12 11:58:00,
2013-03-12 08:03:00,32.7,28.4,29.78,SW,225,3.4,7.4,84,0.00,,,0.00,WUHU21623XXSP,2013-03-12 12:03:00,
2013-03-12 08:08:00,32.5,28.2,29.78,SW,225,5.4,7.4,84,0.00,,,0.00,WUHU21623XXSP,2013-03-12 12:08:00,
2013-03-12 08:13:00,32.5,28.2,29.78,SW,225,0.7,5.4,83,0.00,,,0.00,WUHU21623XXSP,2013-03-12 12:13:00,
2013-03-12 08:18:00,32.4,27.8,29.78,SW,225,2.5,6.7,83,0.00,,,0.00,WUHU21623XXSP,2013-03-12 12:18:00,
2013-03-12 08:23:00,32.4,27.8,29.79,SW,225,6.5,6.7,83,0.00,,,0.00,WUHU21623XXSP,2013-03-12 12:23:00,
2013-03-12 08:28:00,32.4,27.8,29.79,SW,225,4.7,6.5,83,0.00,,,0.00,WUHU21623XXSP,2013-03-12 12:28:00,
2013-03-12 08:33:00,32.5,27.9,29.79,SW,225,0.0,6.5,83,0.00,,,0.00,WUHU21623XXSP,2013-03-12 12:33:00,
2013-03-12 08:38:00,32.5,27.9,29.79,SW,225,2.0,6.7,83,0.00,,,0.00,WUHU21623XXSP,2013-03-12 12:38:00,
2013-03-12 08:43:00,32.5,27.9,29.79,SW,225,2.0,6.7,83,0.00,,,0.00,WUHU21623XXSP,2013-03-12 12:43:00,
2013-03-12 08:48:00,32.5,27.9,29.80,SW,225,4.0,4.0,83,0.00,,,0.00,WUHU21623XXSP,2013-03-12 12:48:00,
2013-03-12 08:53:00,32.5,27.9,29.80,SW,225,4.0,4.0,83,0.00,,,0.00,WUHU21623XXSP,2013-03-12 12:53:00,
2013-03-12 08:58:00,32.4,27.8,29.80,SW,225,2.9,4.0,83,0.00,,,0.00,WUHU21623XXSP,2013-03-12 12:58:00,
2013-03-12 09:03:00,32.5,27.9,29.80,SW,225,6.3,6.3,83,0.00,,,0.00,WUHU21623XXSP,2013-03-12 13:03:00,
2013-03-12 09:08:00,32.5,27.9,29.80,SW,225,5.6,6.3,83,0.00,,,0.00,WUHU21623XXSP,2013-03-12 13:08:00,
2013-03-12 09:13:00,32.5,27.9,29.80,SW,225,3.1,6.3,83,0.00,,,0.00,WUHU21623XXSP,2013-03-12 13:13:00,
2013-03-12 09:18:00,32.5,27.9,29.80,SW,225,0.0,3.1,83,0.00,,,0.00,WUHU21623XXSP,2013-03-12 13:18:00,
2013-03-12 09:23:00,32.5,27.9,29.80,SW,225,6.7,6.7,83,0.00,,,0.00,WUHU21623XXSP,2013-03-12 13:23:00,
2013-03-12 09:28:00,32.5,27.9,29.80,SW,225,6.7,6.7,83,0.00,,,0.00,WUHU21623XXSP,2013-03-12 13:28:00,
2013-03-12 09:33:00,32.7,28.1,29.80,SW,225,2.9,6.7,83,0.00,,,0.00,WUHU21623XXSP,2013-03-12 13:33:00,
2013-03-12 09:38:00,32.7,27.9,29.80,SW,225,2.9,6.7,83,0.00,,,0.00,WUHU21623XXSP,2013-03-12 13:38:00,
2013-03-12 09:43:00,32.7,27.8,29.81,SW,225,2.9,5.6,82,0.00,,,0.00,WUHU21623XXSP,2013-03-12 13:43:00,
2013-03-12 09:48:00,32.7,27.8,29.81,SW,225,5.4,6.7,82,0.00,,,0.00,WUHU21623XXSP,2013-03-12 13:48:00,
2013-03-12 09:53:00,32.7,27.8,29.81,SW,225,0.9,9.8,82,0.00,,,0.00,WUHU21623XXSP,2013-03-12 13:53:00,
2013-03-12 09:58:00,32.7,27.8,29.81,SW,225,5.8,9.8,82,0.00,,,0.00,WUHU21623XXSP,2013-03-12 13:58:00,
2013-03-12 10:03:00,32.7,27.8,29.81,SW,225,10.3,10.3,82,0.00,,,0.00,WUHU21623XXSP,2013-03-12 14:03:00,
2013-03-12 10:08:00,32.7,27.8,29.81,SW,225,3.4,10.3,82,0.00,,,0.00,WUHU21623XXSP,2013-03-12 14:08:00,
2013-03-12 10:13:00,32.7,27.8,29.81,SW,225,2.7,8.3,82,0.00,,,0.00,WUHU21623XXSP,2013-03-12 14:13:00,
2013-03-12 10:18:00,32.9,28.0,29.82,SSW,202,0.0,3.4,82,0.00,,,0.00,WUHU21623XXSP,2013-03-12 14:18:00,
2013-03-12 10:23:00,33.1,28.1,29.82,SSW,202,6.7,6.7,82,0.00,,,0.00,WUHU21623XXSP,2013-03-12 14:23:00,
2013-03-12 10:28:00,32.9,28.0,29.82,SSW,202,4.7,6.7,82,0.00,,,0.00,WUHU21623XXSP,2013-03-12 14:28:00,
2013-03-12 10:33:00,33.1,28.0,29.81,SSW,202,4.7,4.7,82,0.00,,,0.00,WUHU21623XXSP,2013-03-12 14:33:00,
2013-03-12 10:38:00,32.9,28.0,29.82,SW,225,0.0,4.7,82,0.00,,,0.00,WUHU21623XXSP,2013-03-12 14:38:00,
2013-03-12 10:43:00,32.9,28.0,29.83,SW,225,2.0,4.7,82,0.00,,,0.00,WUHU21623XXSP,2013-03-12 14:43:00,
2013-03-12 10:48:00,32.9,28.1,29.82,SW,225,4.9,4.9,82,0.00,,,0.00,WUHU21623XXSP,2013-03-12 14:48:00,
2013-03-12 10:53:00,32.9,28.0,29.83,SW,225,3.4,4.9,82,0.00,,,0.00,WUHU21623XXSP,2013-03-12 14:53:00,
2013-03-12 10:58:00,32.9,28.0,29.83,SW,225,2.7,4.9,82,0.00,,,0.00,WUHU21623XXSP,2013-03-12 14:58:00,
2013-03-12 11:03:00,32.9,28.0,29.82,SW,225,2.7,3.4,82,0.00,,,0.00,WUHU21623XXSP,2013-03-12 15:03:00,
2013-03-12 11:08:00,32.7,27.5,29.82,SW,225,0.9,2.7,81,0.00,,,0.00,WUHU21623XXSP,2013-03-12 15:08:00,
2013-03-12 11:13:00,32.7,27.5,29.82,SW,225,5.6,5.6,81,0.00,,,0.00,WUHU21623XXSP,2013-03-12 15:13:00,
2013-03-12 11:18:00,32.7,27.5,29.82,SW,225,3.4,5.6,82,0.00,,,0.00,WUHU21623XXSP,2013-03-12 15:18:00,
2013-03-12 11:23:00,32.5,27.8,29.83,SW,225,6.7,6.7,82,0.00,,,0.00,WUHU21623XXSP,2013-03-12 15:23:00,
2013-03-12 11:28:00,32.7,27.7,29.83,SW,225,4.3,6.7,82,0.00,,,0.00,WUHU21623XXSP,2013-03-12 15:28:00,
2013-03-12 11:33:00,32.5,27.8,29.83,SW,225,0.0,4.3,82,0.00,,,0.00,WUHU21623XXSP,2013-03-12 15:33:00,
2013-03-12 11:38:00,32.5,27.7,29.83,SSW,202,0.0,2.0,82,0.00,,,0.00,WUHU21623XXSP,2013-03-12 15:38:00,
2013-03-12 11:43:00,32.7,27.8,29.83,SW,225,0.0,1.6,82,0.00,,,0.00,WUHU21623XXSP,2013-03-12 15:43:00,
2013-03-12 11:48:00,33.1,28.1,29.83,SW,225,3.1,3.1,82,0.00,,,0.00,WUHU21623XXSP,2013-03-12 15:48:00,
2013-03-12 11:53:00,33.6,28.6,29.83,SW,225,6.3,6.7,82,0.00,,,0.00,WUHU21623XXSP,2013-03-12 15:53:00,
2013-03-12 11:58:00,33.6,28.6,29.83,NNW,337,7.8,7.8,82,0.00,,,0.00,WUHU21623XXSP,2013-03-12 15:58:00,
2013-03-12 12:03:00,33.6,28.3,29.83,SW,225,4.5,7.8,81,0.00,,,0.00,WUHU21623XXSP,2013-03-12 16:03:00,
2013-03-12 12:08:00,33.8,28.3,29.83,SSW,202,4.3,4.5,81,0.00,,,0.00,WUHU21623XXSP,2013-03-12 16:08:00,
2013-03-12 12:13:00,33.6,28.3,29.83,SW,225,0.7,4.3,81,0.00,,,0.00,WUHU21623XXSP,2013-03-12 16:13:00,
2013-03-12 12:18:00,33.8,28.2,29.83,SW,225,8.3,8.3,80,0.00,,,0.00,WUHU21623XXSP,2013-03-12 16:18:00,
2013-03-12 12:23:00,33.8,28.2,29.83,SW,225,0.0,8.3,80,0.00,,,0.00,WUHU21623XXSP,2013-03-12 16:23:00,
2013-03-12 12:28:00,34.0,28.4,29.84,SW,225,2.7,8.3,80,0.00,,,0.00,WUHU21623XXSP,2013-03-12 16:28:00,
2013-03-12 12:33:00,34.0,28.4,29.83,SW,225,2.2,4.3,80,0.00,,,0.00,WUHU21623XXSP,2013-03-12 16:33:00,
2013-03-12 12:38:00,34.2,28.4,29.83,SW,225,2.9,7.8,80,0.00,,,0.00,WUHU21623XXSP,2013-03-12 16:38:00,
2013-03-12 12:43:00,34.2,28.3,29.83,SSW,202,0.0,7.8,79,0.00,,,0.00,WUHU21623XXSP,2013-03-12 16:43:00,
2013-03-12 12:48:00,34.3,28.3,29.83,SW,225,2.0,6.9,79,0.00,,,0.00,WUHU21623XXSP,2013-03-12 16:48:00,
2013-03-12 12:53:00,34.3,28.1,29.83,North,0,7.8,7.8,78,0.00,,,0.00,WUHU21623XXSP,2013-03-12 16:53:00,
2013-03-12 12:58:00,34.3,28.1,29.83,SW,225,3.4,7.8,78,0.00,,,0.00,WUHU21623XXSP,2013-03-12 16:58:00,
2013-03-12 13:03:00,34.3,27.8,29.84,SW,225,5.1,5.4,77,0.00,,,0.00,WUHU21623XXSP,2013-03-12 17:03:00,
2013-03-12 13:08:00,34.5,27.6,29.84,SSW,202,2.0,5.4,76,0.00,,,0.00,WUHU21623XXSP,2013-03-12 17:08:00,
2013-03-12 13:13:00,34.7,27.8,29.84,SW,225,5.1,5.1,75,0.00,,,0.00,WUHU21623XXSP,2013-03-12 17:13:00,
2013-03-12 13:18:00,34.7,27.5,29.84,SW,225,5.1,5.1,75,0.00,,,0.00,WUHU21623XXSP,2013-03-12 17:18:00,
2013-03-12 13:23:00,35.4,27.9,29.84,SSW,202,4.3,6.5,74,0.00,,,0.00,WUHU21623XXSP,2013-03-12 17:23:00,
2013-03-12 13:28:00,35.8,27.9,29.83,SSW,202,2.5,6.5,73,0.00,,,0.00,WUHU21623XXSP,2013-03-12 17:28:00,
2013-03-12 13:33:00,35.8,27.9,29.83,SW,225,2.0,4.3,73,0.00,,,0.00,WUHU21623XXSP,2013-03-12 17:33:00,
2013-03-12 13:38:00,36.0,27.5,29.83,SW,225,7.4,7.6,71,0.00,,,0.00,WUHU21623XXSP,2013-03-12 17:38:00,
2013-03-12 13:43:00,36.0,27.5,29.84,SW,225,4.3,7.6,71,0.00,,,0.00,WUHU21623XXSP,2013-03-12 17:43:00,
2013-03-12 13:48:00,35.8,27.5,29.83,SW,225,6.9,6.9,70,0.00,,,0.00,WUHU21623XXSP,2013-03-12 17:48:00,
2013-03-12 13:53:00,36.0,27.5,29.83,SW,225,2.9,6.9,71,0.00,,,0.00,WUHU21623XXSP,2013-03-12 17:53:00,
2013-03-12 13:58:00,36.1,27.3,29.84,SW,225,6.5,7.4,70,0.00,,,0.00,WUHU21623XXSP,2013-03-12 17:58:00,
2013-03-12 14:03:00,36.1,27.3,29.84,SW,225,6.9,9.6,70,0.00,,,0.00,WUHU21623XXSP,2013-03-12 18:03:00,
2013-03-12 14:08:00,36.3,27.5,29.84,SSW,202,7.2,9.6,70,0.00,,,0.00,WUHU21623XXSP,2013-03-12 18:08:00,
2013-03-12 14:13:00,36.3,27.5,29.84,SW,225,5.8,7.4,70,0.00,,,0.00,WUHU21623XXSP,2013-03-12 18:13:00,
2013-03-12 14:18:00,36.7,27.7,29.84,SW,225,5.8,7.4,71,0.00,,,0.00,WUHU21623XXSP,2013-03-12 18:18:00,
2013-03-12 14:23:00,36.9,28.0,29.84,SW,225,4.9,8.5,70,0.00,,,0.00,WUHU21623XXSP,2013-03-12 18:23:00,
2013-03-12 14:28:00,36.7,27.5,29.83,SSW,202,6.0,8.5,69,0.00,,,0.00,WUHU21623XXSP,2013-03-12 18:28:00,
2013-03-12 14:33:00,36.7,27.5,29.84,SSW,202,7.4,7.4,69,0.00,,,0.00,WUHU21623XXSP,2013-03-12 18:33:00,
2013-03-12 14:38:00,36.9,27.5,29.83,SSW,202,6.7,7.4,69,0.00,,,0.00,WUHU21623XXSP,2013-03-12 18:38:00,
2013-03-12 14:43:00,36.9,27.7,29.84,SSW,202,8.7,13.2,69,0.00,,,0.00,WUHU21623XXSP,2013-03-12 18:43:00,
2013-03-12 14:48:00,37.0,27.8,29.83,SSW,202,3.6,13.2,69,0.00,,,0.00,WUHU21623XXSP,2013-03-12 18:48:00,
2013-03-12 14:53:00,37.0,28.2,29.83,SSW,202,8.5,8.5,70,0.00,,,0.00,WUHU21623XXSP,2013-03-12 18:53:00,
2013-03-12 14:58:00,37.0,28.2,29.83,SW,225,4.0,8.5,70,0.00,,,0.00,WUHU21623XXSP,2013-03-12 18:58:00,
2013-03-12 15:03:00,37.2,28.2,29.83,SW,225,6.5,6.5,70,0.00,,,0.00,WUHU21623XXSP,2013-03-12 19:03:00,
2013-03-12 15:09:00,37.0,28.2,29.83,SW,225,0.9,9.8,70,0.00,,,0.00,WUHU21623XXSP,2013-03-12 19:09:00,
2013-03-12 15:13:00,36.7,28.0,29.83,SW,225,2.7,9.8,70,0.00,,,0.00,WUHU21623XXSP,2013-03-12 19:13:00,
2013-03-12 15:18:00,36.3,27.5,29.83,SW,225,3.6,9.6,70,0.00,,,0.00,WUHU21623XXSP,2013-03-12 19:18:00,
2013-03-12 15:24:00,36.1,27.5,29.83,South,180,4.7,9.6,70,0.00,,,0.00,WUHU21623XXSP,2013-03-12 19:24:00,
2013-03-12 15:29:00,35.8,27.1,29.83,South,180,4.7,4.7,71,0.00,,,0.00,WUHU21623XXSP,2013-03-12 19:29:00,
2013-03-12 15:34:00,35.8,27.3,29.82,South,180,4.7,4.7,71,0.00,,,0.00,WUHU21623XXSP,2013-03-12 19:34:00,
2013-03-12 15:39:00,36.1,27.8,29.83,SW,225,2.7,4.7,72,0.00,,,0.00,WUHU21623XXSP,2013-03-12 19:39:00,
2013-03-12 15:44:00,36.1,28.0,29.83,SW,225,2.7,4.7,72,0.00,,,0.00,WUHU21623XXSP,2013-03-12 19:44:00,
2013-03-12 15:49:00,36.1,28.0,29.83,SSW,202,2.2,2.7,71,0.00,,,0.00,WUHU21623XXSP,2013-03-12 19:49:00,
2013-03-12 15:54:00,36.1,27.3,29.83,SW,225,2.2,5.8,70,0.00,,,0.00,WUHU21623XXSP,2013-03-12 19:54:00,
2013-03-12 15:59:00,36.1,27.3,29.83,SSW,202,0.0,5.8,70,0.00,,,0.00,WUHU21623XXSP,2013-03-12 19:59:00,
2013-03-12 16:04:00,36.0,27.1,29.83,SSW,202,11.4,11.4,70,0.00,,,0.00,WUHU21623XXSP,2013-03-12 20:04:00,
2013-03-12 16:09:00,35.8,27.0,29.83,SW,225,2.9,11.4,70,0.00,,,0.00,WUHU21623XXSP,2013-03-12 20:09:00,
2013-03-12 16:14:00,35.4,26.9,29.83,SSW,202,1.6,5.6,71,0.00,,,0.00,WUHU21623XXSP,2013-03-12 20:14:00,
2013-03-12 16:19:00,35.2,26.7,29.84,SW,225,7.2,7.2,71,0.00,,,0.00,WUHU21623XXSP,2013-03-12 20:19:00,
2013-03-12 16:24:00,34.7,26.5,29.84,SW,225,3.6,7.2,72,0.00,,,0.00,WUHU21623XXSP,2013-03-12 20:24:00,
2013-03-12 16:29:00,34.3,26.2,29.84,SW,225,8.1,8.1,72,0.00,,,0.00,WUHU21623XXSP,2013-03-12 20:29:00,
2013-03-12 16:34:00,34.3,26.5,29.84,SW,225,1.8,8.1,73,0.00,,,0.00,WUHU21623XXSP,2013-03-12 20:34:00,
2013-03-12 16:39:00,34.2,26.3,29.84,SW,225,6.7,8.1,73,0.00,,,0.00,WUHU21623XXSP,2013-03-12 20:39:00,
2013-03-12 16:44:00,34.2,26.6,29.85,SSW,202,0.0,6.7,74,0.00,,,0.00,WUHU21623XXSP,2013-03-12 20:44:00,
2013-03-12 16:49:00,34.0,26.5,29.85,SW,225,4.5,4.5,74,0.00,,,0.00,WUHU21623XXSP,2013-03-12 20:49:00,
2013-03-12 16:54:00,34.0,26.5,29.85,SSW,202,10.3,10.3,74,0.00,,,0.00,WUHU21623XXSP,2013-03-12 20:54:00,
2013-03-12 16:59:00,33.8,26.3,29.84,SW,225,8.3,10.3,74,0.00,,,0.00,WUHU21623XXSP,2013-03-12 20:59:00,
2013-03-12 17:04:00,33.8,26.3,29.85,SW,225,0.0,8.3,74,0.00,,,0.00,WUHU21623XXSP,2013-03-12 21:04:00,
2013-03-12 17:09:00,33.8,26.3,29.84,SW,225,3.1,7.8,74,0.00,,,0.00,WUHU21623XXSP,2013-03-12 21:09:00,
2013-03-12 17:14:00,33.8,26.3,29.85,SSW,202,4.0,5.8,74,0.00,,,0.00,WUHU21623XXSP,2013-03-12 21:14:00,
2013-03-12 17:19:00,34.0,26.5,29.85,SW,225,4.5,5.8,74,0.00,,,0.00,WUHU21623XXSP,2013-03-12 21:19:00,
2013-03-12 17:24:00,34.0,26.1,29.85,SW,225,4.7,5.4,73,0.00,,,0.00,WUHU21623XXSP,2013-03-12 21:24:00,
2013-03-12 17:29:00,34.0,26.1,29.85,SSW,202,4.5,6.9,73,0.00,,,0.00,WUHU21623XXSP,2013-03-12 21:29:00,
2013-03-12 17:34:00,33.8,26.0,29.85,SW,225,3.4,9.4,73,0.00,,,0.00,WUHU21623XXSP,2013-03-12 21:34:00,
2013-03-12 17:39:00,33.6,25.8,29.85,SW,225,6.5,9.4,73,0.00,,,0.00,WUHU21623XXSP,2013-03-12 21:39:00,
2013-03-12 17:44:00,33.6,25.8,29.85,SSW,202,6.0,6.5,73,0.00,,,0.00,WUHU21623XXSP,2013-03-12 21:44:00,
2013-03-12 17:49:00,33.6,25.8,29.85,SW,225,3.8,6.0,73,0.00,,,0.00,WUHU21623XXSP,2013-03-12 21:49:00,
2013-03-12 17:54:00,33.4,25.8,29.86,SW,225,6.0,6.0,74,0.00,,,0.00,WUHU21623XXSP,2013-03-12 21:54:00,
2013-03-12 17:59:00,33.4,26.0,29.86,SW,225,6.3,6.3,74,0.00,,,0.00,WUHU21623XXSP,2013-03-12 21:59:00,
2013-03-12 18:04:00,33.3,25.8,29.86,SW,225,5.6,6.3,74,0.00,,,0.00,WUHU21623XXSP,2013-03-12 22:04:00,
2013-03-12 18:09:00,33.1,25.6,29.86,SSW,202,3.6,5.6,74,0.00,,,0.00,WUHU21623XXSP,2013-03-12 22:09:00,
2013-03-12 18:14:00,33.1,25.6,29.86,South,180,6.5,6.5,74,0.00,,,0.00,WUHU21623XXSP,2013-03-12 22:14:00,
2013-03-12 18:19:00,32.9,25.5,29.87,SW,225,1.1,6.5,74,0.00,,,0.00,WUHU21623XXSP,2013-03-12 22:19:00,
2013-03-12 18:24:00,32.9,25.5,29.87,SW,225,2.9,2.9,74,0.00,,,0.00,WUHU21623XXSP,2013-03-12 22:24:00,
2013-03-12 18:29:00,32.7,25.3,29.86,SW,225,3.8,4.3,74,0.00,,,0.00,WUHU21623XXSP,2013-03-12 22:29:00,
2013-03-12 18:34:00,32.7,25.0,29.87,SW,225,2.7,4.3,73,0.00,,,0.00,WUHU21623XXSP,2013-03-12 22:34:00,
2013-03-12 18:39:00,32.7,25.0,29.87,SSW,202,6.5,6.5,73,0.00,,,0.00,WUHU21623XXSP,2013-03-12 22:39:00,
2013-03-12 18:44:00,32.5,24.8,29.87,SW,225,8.7,8.7,73,0.00,,,0.00,WUHU21623XXSP,2013-03-12 22:44:00,
2013-03-12 18:49:00,32.5,24.5,29.88,SSW,202,7.8,8.7,72,0.00,,,0.00,WUHU21623XXSP,2013-03-12 22:49:00,
2013-03-12 18:54:00,32.5,24.5,29.88,SW,225,2.5,7.8,72,0.00,,,0.00,WUHU21623XXSP,2013-03-12 22:54:00,
2013-03-12 18:59:00,32.4,24.3,29.87,SW,225,8.9,8.9,72,0.00,,,0.00,WUHU21623XXSP,2013-03-12 22:59:00,
2013-03-12 19:04:00,32.2,24.2,29.88,SW,225,2.2,8.9,72,0.00,,,0.00,WUHU21623XXSP,2013-03-12 23:04:00,
2013-03-12 19:09:00,32.2,24.2,29.88,North,0,4.5,4.5,72,0.00,,,0.00,WUHU21623XXSP,2013-03-12 23:09:00,
2013-03-12 19:14:00,32.2,24.2,29.88,SW,225,4.9,4.9,72,0.00,,,0.00,WUHU21623XXSP,2013-03-12 23:14:00,
2013-03-12 19:19:00,32.2,23.8,29.88,SSW,202,2.9,7.2,71,0.00,,,0.00,WUHU21623XXSP,2013-03-12 23:19:00,
2013-03-12 19:24:00,32.2,23.8,29.88,SW,225,1.8,7.4,71,0.00,,,0.00,WUHU21623XXSP,2013-03-12 23:24:00,
2013-03-12 19:29:00,32.0,23.7,29.88,SSW,202,2.2,7.4,71,0.00,,,0.00,WUHU21623XXSP,2013-03-12 23:29:00,
2013-03-12 19:34:00,31.8,23.5,29.88,SSW,202,2.7,6.7,71,0.00,,,0.00,WUHU21623XXSP,2013-03-12 23:34:00,
2013-03-12 19:39:00,31.6,23.5,29.88,SW,225,6.5,6.5,71,0.00,,,0.00,WUHU21623XXSP,2013-03-12 23:39:00,
2013-03-12 19:44:00,31.6,23.3,29.88,SW,225,6.9,6.9,71,0.00,,,0.00,WUHU21623XXSP,2013-03-12 23:44:00,
2013-03-12 19:49:00,31.6,23.3,29.88,SSW,202,11.9,11.9,71,0.00,,,0.00,WUHU21623XXSP,2013-03-12 23:49:00,
2013-03-12 19:54:00,31.6,23.6,29.88,SSW,202,6.9,11.9,72,0.00,,,0.00,WUHU21623XXSP,2013-03-12 23:54:00,
2013-03-12 19:59:00,31.6,23.6,29.88,SW,225,6.5,6.9,72,0.00,,,0.00,WUHU21623XXSP,2013-03-12 23:59:00,
2013-03-12 20:04:00,31.3,23.3,29.88,SW,225,6.3,7.2,72,0.00,,,0.00,WUHU21623XXSP,2013-03-13 00:04:00,
2013-03-12 20:09:00,31.3,23.3,29.88,SW,225,6.5,7.2,72,0.00,,,0.00,WUHU21623XXSP,2013-03-13 00:09:00,
2013-03-12 20:14:00,31.1,23.4,29.89,SSW,202,2.7,6.5,73,0.00,,,0.00,WUHU21623XXSP,2013-03-13 00:14:00,
2013-03-12 20:19:00,30.9,23.6,29.88,SSW,202,7.8,7.8,74,0.00,,,0.00,WUHU21623XXSP,2013-03-13 00:19:00,
2013-03-12 20:24:00,30.9,23.6,29.88,SW,225,3.4,7.8,74,0.00,,,0.00,WUHU21623XXSP,2013-03-13 00:24:00,
2013-03-12 20:29:00,30.9,23.6,29.89,SW,225,3.4,7.8,74,0.00,,,0.00,WUHU21623XXSP,2013-03-13 00:29:00,
2013-03-12 20:34:00,30.7,23.7,29.89,SW,225,0.0,3.4,75,0.00,,,0.00,WUHU21623XXSP,2013-03-13 00:34:00,
2013-03-12 20:39:00,30.7,23.7,29.89,SSW,202,2.5,3.4,75,0.00,,,0.00,WUHU21623XXSP,2013-03-13 00:39:00,
2013-03-12 20:44:00,30.7,24.0,29.89,SSW,202,2.7,2.7,76,0.00,,,0.00,WUHU21623XXSP,2013-03-13 00:44:00,
2013-03-12 20:49:00,30.6,23.9,29.89,SSW,202,2.2,2.7,76,0.00,,,0.00,WUHU21623XXSP,2013-03-13 00:49:00,
2013-03-12 20:54:00,30.4,23.7,29.89,SSW,202,2.2,2.7,76,0.00,,,0.00,WUHU21623XXSP,2013-03-13 00:54:00,
2013-03-12 20:59:00,30.4,24.0,29.88,SSW,202,1.3,2.2,77,0.00,,,0.00,WUHU21623XXSP,2013-03-13 00:59:00,
2013-03-12 21:04:00,30.4,24.0,29.89,SSW,202,1.3,1.3,77,0.00,,,0.00,WUHU21623XXSP,2013-03-13 01:04:00,
2013-03-12 21:09:00,30.4,24.0,29.89,SSW,202,3.4,3.4,77,0.00,,,0.00,WUHU21623XXSP,2013-03-13 01:09:00,
2013-03-12 21:14:00,30.2,24.2,29.89,SSW,202,4.0,5.4,78,0.00,,,0.00,WUHU21623XXSP,2013-03-13 01:14:00,
2013-03-12 21:19:00,30.0,24.0,29.88,SSW,202,6.5,6.5,78,0.00,,,0.00,WUHU21623XXSP,2013-03-13 01:19:00,
2013-03-12 21:24:00,30.0,24.0,29.89,SSW,202,0.0,6.5,78,0.00,,,0.00,WUHU21623XXSP,2013-03-13 01:24:00,
2013-03-12 21:29:00,29.8,23.8,29.89,SSW,202,0.0,5.8,78,0.00,,,0.00,WUHU21623XXSP,2013-03-13 01:29:00,
2013-03-12 21:34:00,29.5,23.8,29.89,SW,225,1.8,1.8,79,0.00,,,0.00,WUHU21623XXSP,2013-03-13 01:34:00,
2013-03-12 21:39:00,29.5,23.8,29.89,SSW,202,0.0,1.8,79,0.00,,,0.00,WUHU21623XXSP,2013-03-13 01:39:00,
2013-03-12 21:44:00,29.3,23.6,29.89,SSW,202,0.0,1.8,79,0.00,,,0.00,WUHU21623XXSP,2013-03-13 01:44:00,
2013-03-12 21:49:00,29.1,23.4,29.89,SSW,202,0.0,0.0,79,0.00,,,0.00,WUHU21623XXSP,2013-03-13 01:49:00,
2013-03-12 21:54:00,29.1,23.4,29.89,SSW,202,1.8,1.8,79,0.00,,,0.00,WUHU21623XXSP,2013-03-13 01:54:00,
2013-03-12 21:59:00,28.9,23.5,29.89,SSW,202,0.0,1.8,80,0.00,,,0.00,WUHU21623XXSP,2013-03-13 01:59:00,
2013-03-12 22:04:00,28.8,23.4,29.90,SSW,202,0.0,0.0,80,0.00,,,0.00,WUHU21623XXSP,2013-03-13 02:04:00,
2013-03-12 22:09:00,28.8,23.4,29.90,SSW,202,0.0,0.0,80,0.00,,,0.00,WUHU21623XXSP,2013-03-13 02:09:00,
2013-03-12 22:14:00,28.6,23.2,29.90,SSW,202,0.0,0.0,80,0.00,,,0.00,WUHU21623XXSP,2013-03-13 02:14:00,
2013-03-12 22:19:00,28.6,23.2,29.89,SSW,202,0.0,0.0,80,0.00,,,0.00,WUHU21623XXSP,2013-03-13 02:19:00,
2013-03-12 22:24:00,28.2,22.8,29.90,SSW,202,0.0,0.0,80,0.00,,,0.00,WUHU21623XXSP,2013-03-13 02:24:00,
2013-03-12 22:29:00,28.2,22.8,29.89,SSW,202,0.0,2.5,80,0.00,,,0.00,WUHU21623XXSP,2013-03-13 02:29:00,
2013-03-12 22:34:00,28.2,23.1,29.89,SSW,202,0.0,2.5,81,0.00,,,0.00,WUHU21623XXSP,2013-03-13 02:34:00,
2013-03-12 22:39:00,28.2,23.1,29.89,SSW,202,0.0,0.0,81,0.00,,,0.00,WUHU21623XXSP,2013-03-13 02:39:00,
2013-03-12 22:44:00,28.2,23.1,29.89,SSW,202,0.0,0.0,81,0.00,,,0.00,WUHU21623XXSP,2013-03-13 02:44:00,
2013-03-12 22:49:00,28.2,23.1,29.90,SSW,202,0.0,0.0,81,0.00,,,0.00,WUHU21623XXSP,2013-03-13 02:49:00,
2013-03-12 22:54:00,28.2,23.1,29.89,SSW,202,0.0,0.0,81,0.00,,,0.00,WUHU21623XXSP,2013-03-13 02:54:00,
2013-03-12 22:59:00,28.2,23.1,29.89,SW,225,0.0,0.0,81,0.00,,,0.00,WUHU21623XXSP,2013-03-13 02:59:00,
2013-03-12 23:04:00,28.2,23.1,29.89,SW,225,0.0,0.0,81,0.00,,,0.00,WUHU21623XXSP,2013-03-13 03:04:00,
2013-03-12 23:09:00,28.4,23.6,29.89,SW,225,0.0,2.5,82,0.00,,,0.00,WUHU21623XXSP,2013-03-13 03:09:00,
2013-03-12 23:14:00,28.6,23.6,29.89,SSW,202,1.3,2.5,82,0.00,,,0.00,WUHU21623XXSP,2013-03-13 03:14:00,
2013-03-12 23:19:00,28.6,23.8,29.89,SSW,202,0.0,1.3,82,0.00,,,0.00,WUHU21623XXSP,2013-03-13 03:19:00,
2013-03-12 23:24:00,28.6,23.8,29.89,South,180,0.0,0.0,82,0.00,,,0.00,WUHU21623XXSP,2013-03-13 03:24:00,
2013-03-12 23:29:00,28.8,23.9,29.89,South,180,0.0,0.0,82,0.00,,,0.00,WUHU21623XXSP,2013-03-13 03:29:00,
2013-03-12 23:34:00,28.8,23.9,29.89,SSW,202,0.0,0.0,82,0.00,,,0.00,WUHU21623XXSP,2013-03-13 03:34:00,
2013-03-12 23:39:00,28.9,24.1,29.89,SSW,202,6.5,6.5,82,0.00,,,0.00,WUHU21623XXSP,2013-03-13 03:39:00,
2013-03-12 23:44:00,29.1,24.0,29.89,SSW,202,0.0,8.3,81,0.00,,,0.00,WUHU21623XXSP,2013-03-13 03:44:00,
2013-03-12 23:49:00,29.1,24.0,29.89,SSW,202,0.0,8.3,81,0.00,,,0.00,WUHU21623XXSP,2013-03-13 03:49:00,
2013-03-12 23:54:00,29.1,24.0,29.89,SSW,202,0.0,1.6,81,0.00,,,0.00,WUHU21623XXSP,2013-03-13 03:54:00,
2013-03-12 23:59:00,29.1,24.0,29.88,SSW,202,0.0,1.6,81,0.00,,,0.00,WUHU21623XXSP,2013-03-13 03:59:00,